Change the Weather History Date:

Tuesday, January 8, 2013

  Actual Average Record
Temperature  
Mean Temperature 26 °F 9 °F  
Max Temperature 35 °F 18 °F 50 °F (1900)
Min Temperature 17 °F 0 °F -48 °F (1887)
Degree Days  
Heating Degree Days 39 56  
Month to date heating degree days 444  
Since 1 July heating degree days 3984  
Cooling Degree Days 0 0  
Month to date cooling degree days 0  
Year to date cooling degree days 0  
Moisture  
Dew Point 20 °F    
Average Humidity 75    
Maximum Humidity 88    
Minimum Humidity 55    
Precipitation  
Precipitation 0.01 in 0.02 in 0.35 in (1992)
Month to date precipitation 0.20  
Year to date precipitation 0.20  
Snow  
Snow 0.00 in 0.30 in 3.10 in (1964)
Month to date snowfall 3.1  
Since 1 July snowfall 22.9  
Snow Depth -    
Sea Level Pressure  
Sea Level Pressure 29.78 in    
Wind  
Wind Speed 9 mph (South)    
Max Wind Speed 21 mph    
Max Gust Speed 33 mph    
Visibility 10 miles    
Events Snow    
T = Trace of Precipitation, MM = Missing Value Source: NWS Daily Summary

Daily Weather History Graph

Daily Weather History Graph

Search for Another Location

Airport or City:

Trip Planner

Search our weather history database for the weather conditions in past years. The results will help you decide how hot, cold, wet, or windy it might be!

Date:

Astronomy

Jan. 08, 2013 Rise Set
Actual Time 8:11 AM CST 4:57 PM CST
Civil Twilight 7:36 AM CST 5:31 PM CST
Nautical Twilight 6:58 AM CST 6:09 PM CST
Astronomical Twilight 6:21 AM CST 6:46 PM CST
Moon 4:44 AM CST (1/8) 2:00 PM CST (1/8)
Length of Visible Light 9h 55m
Length of Day
8h 45m
Waning Crescent, 13% of the Moon is Illuminated
Jan 8
Waning Crescent
Jan 11
New
Jan 18
First Quarter
Jan 26
Full
Feb 3
Last Quarter

Hourly Weather History & Observations

Time (CST) Temp. Windchill Dew Point Humidity Pressure Visibility Wind Dir Wind Speed Gust Speed Precip Events Conditions
12:53 AM 16.0 °F 6.3 °F 12.0 °F 84% 29.92 in 10.0 mi South 6.9 mph - N/A   Clear
1:53 AM 12.9 °F - 10.0 °F 88% 29.91 in 10.0 mi Calm Calm - N/A   Clear
2:53 AM 10.0 °F 1.8 °F 6.1 °F 84% 29.91 in 10.0 mi SE 4.6 mph - N/A   Clear
3:53 AM 12.9 °F 1.6 °F 9.0 °F 84% 29.89 in 10.0 mi SSE 8.1 mph - N/A   Clear
4:53 AM 14.0 °F 3.9 °F 10.0 °F 84% 29.87 in 9.0 mi SE 6.9 mph - N/A   Clear
5:53 AM 17.1 °F 5.8 °F 12.0 °F 81% 29.85 in 10.0 mi SSE 9.2 mph - N/A   Clear
6:53 AM 19.9 °F 9.3 °F 16.0 °F 85% 29.83 in 10.0 mi SSE 9.2 mph - N/A   Clear
7:53 AM 21.9 °F 8.7 °F 17.1 °F 82% 29.83 in 10.0 mi SSE 15.0 mph - N/A   Overcast
8:53 AM 25.0 °F 13.1 °F 19.0 °F 78% 29.82 in 10.0 mi South 13.8 mph - N/A   Overcast
9:53 AM 27.0 °F 16.1 °F 19.9 °F 75% 29.83 in 10.0 mi South 12.7 mph - N/A   Overcast
10:53 AM 30.0 °F 18.3 °F 21.9 °F 72% 29.78 in 10.0 mi SSE 17.3 mph 23.0 mph N/A   Overcast
11:53 AM 30.9 °F 22.8 °F 24.1 °F 76% 29.75 in 3.0 mi SSE 9.2 mph - 0.01 in Snow Light Snow
12:53 PM 33.1 °F 26.1 °F 26.1 °F 75% 29.71 in 9.0 mi South 8.1 mph - 0.00 in Snow Light Snow
1:53 PM 34.0 °F 26.6 °F 23.0 °F 64% 29.68 in 10.0 mi SSE 9.2 mph - 0.00 in   Overcast
2:53 PM 33.1 °F 23.0 °F 24.1 °F 70% 29.69 in 10.0 mi South 15.0 mph - N/A   Overcast
3:24 PM 32.0 °F 22.5 °F 24.8 °F 75% 29.65 in 10.0 mi South 12.7 mph - N/A   Overcast
3:50 PM 30.2 °F 20.8 °F 24.8 °F 80% 29.66 in 10.0 mi South 11.5 mph - N/A   Overcast
3:53 PM 30.9 °F 20.7 °F 24.1 °F 76% 29.71 in 10.0 mi South 13.8 mph - N/A   Mostly Cloudy
4:16 PM 30.2 °F 20.2 °F 24.8 °F 80% 29.67 in 10.0 mi South 12.7 mph - N/A   Mostly Cloudy
4:53 PM 30.9 °F 23.5 °F 25.0 °F 79% 29.72 in 10.0 mi SSW 8.1 mph - N/A   Overcast
5:32 PM 28.4 °F 19.7 °F 23.0 °F 80% 29.69 in 10.0 mi SW 9.2 mph - N/A   Scattered Clouds
5:53 PM 27.0 °F 18.0 °F 21.9 °F 81% 29.74 in 10.0 mi SW 9.2 mph - N/A   Clear
6:53 PM 23.0 °F 13.9 °F 19.0 °F 85% 29.76 in 10.0 mi SSW 8.1 mph - N/A   Clear
7:53 PM 30.9 °F 21.2 °F 25.0 °F 79% 29.77 in 10.0 mi SW 12.7 mph - N/A   Clear
8:53 PM 30.0 °F 20.5 °F 23.0 °F 75% 29.79 in 10.0 mi WSW 11.5 mph - N/A   Clear
9:53 PM 30.9 °F 24.3 °F 23.0 °F 72% 29.78 in 10.0 mi SW 6.9 mph - N/A   Mostly Cloudy
10:53 PM 30.9 °F 21.2 °F 21.9 °F 69% 29.79 in 10.0 mi WSW 12.7 mph - N/A   Partly Cloudy
11:53 PM 33.1 °F 21.2 °F 23.0 °F 66% 29.82 in 10.0 mi West 20.7 mph 33.4 mph N/A   Clear